| time (UTC) | temp F | wind direction | speed MPH | gust MPH | rain 1hr in | rain 24hr in | rain mn in | humidity % | barometer mb |
| 20260831134014 | 58 | 166 | 5.0 | 8.0 | 0.00 | 0.00 | 0.00 | 82 | 1011.5 |
| 20260831133016 | 58 | 151 | 4.0 | 10.0 | 0.00 | 0.00 | 0.00 | 81 | 1011.4 |
| 20260831132020 | 58 | 193 | 2.0 | 7.0 | 0.00 | 0.00 | 0.00 | 81 | 1011.3 |
| 20260831131017 | 58 | 172 | 3.0 | 7.0 | 0.00 | 0.00 | 0.00 | 81 | 1011.3 |
| 20260831130011 | 59 | 197 | 3.0 | 7.0 | 0.00 | 0.00 | 0.00 | 80 | 1011.0 |
| 20260831125018 | 59 | 158 | 3.0 | 6.0 | 0.00 | 0.00 | 0.00 | 79 | 1010.9 |
| 20260831124018 | 59 | 165 | 3.0 | 7.0 | 0.00 | 0.00 | 0.00 | 78 | 1010.9 |
| 20260831123017 | 60 | 170 | 3.0 | 8.0 | 0.00 | 0.00 | 0.00 | 77 | 1010.9 |
| 20260831122013 | 60 | 156 | 4.0 | 7.0 | 0.00 | 0.00 | 0.00 | 76 | 1010.8 |
| 20260831121017 | 60 | 162 | 5.0 | 10.0 | 0.00 | 0.00 | 0.00 | 75 | 1010.7 |
| 20260831120010 | 60 | 170 | 4.0 | 9.0 | 0.00 | 0.00 | 0.00 | 75 | 1010.7 |
| 20260831115012 | 60 | 170 | 4.0 | 7.0 | 0.00 | 0.00 | 0.00 | 74 | 1010.7 |
| 20260831114014 | 61 | 176 | 3.0 | 7.0 | 0.00 | 0.00 | 0.00 | 73 | 1010.7 |
| 20260831113010 | 61 | 158 | 3.0 | 5.0 | 0.00 | 0.00 | 0.00 | 72 | 1010.7 |
| 20260831112030 | 61 | 142 | 3.0 | 7.0 | 0.00 | 0.00 | 0.00 | 72 | 1010.7 |
| 20260831111013 | 61 | 143 | 3.0 | 5.0 | 0.00 | 0.00 | 0.00 | 71 | 1010.6 |
| 20260831110034 | 62 | 147 | 3.0 | 5.0 | 0.00 | 0.00 | 0.00 | 70 | 1010.7 |
| 20260831105038 | 62 | 111 | 2.0 | 7.0 | 0.00 | 0.00 | 0.00 | 70 | 1010.8 |
| 20260831104020 | 62 | 168 | 3.0 | 6.0 | 0.00 | 0.00 | 0.00 | 69 | 1010.7 |
| 20260831103022 | 62 | 155 | 3.0 | 6.0 | 0.00 | 0.00 | 0.00 | 69 | 1010.6 |
| 20260831102022 | 63 | 172 | 2.0 | 5.0 | 0.00 | 0.00 | 0.00 | 69 | 1010.5 |
| 20260831101027 | 63 | 173 | 3.0 | 6.0 | 0.00 | 0.00 | 0.00 | 69 | 1010.5 |
| 20260831100024 | 63 | 159 | 3.0 | 5.0 | 0.00 | 0.00 | 0.00 | 69 | 1010.4 |
| 20260831095023 | 63 | 161 | 3.0 | 7.0 | 0.00 | 0.00 | 0.00 | 68 | 1010.4 |
| 20260831094041 | 63 | 172 | 3.0 | 6.0 | 0.00 | 0.00 | 0.00 | 69 | 1010.3 |
| 20260831093018 | 64 | 174 | 2.0 | 6.0 | 0.00 | 0.00 | 0.00 | 67 | 1010.4 |
| 20260831092021 | 64 | 174 | 3.0 | 6.0 | 0.00 | 0.00 | 0.00 | 66 | 1010.4 |
| 20260831091019 | 65 | 153 | 3.0 | 7.0 | 0.00 | 0.00 | 0.00 | 65 | 1010.7 |
| 20260831090014 | 65 | 153 | 2.0 | 4.0 | 0.00 | 0.00 | 0.00 | 64 | 1010.6 |
| 20260831085019 | 65 | 157 | 2.0 | 6.0 | 0.00 | 0.00 | 0.00 | 64 | 1010.5 |
| 20260831084022 | 66 | 153 | 3.0 | 8.0 | 0.00 | 0.00 | 0.00 | 63 | 1010.6 |
| 20260831083019 | 66 | 167 | 3.0 | 7.0 | 0.00 | 0.00 | 0.00 | 63 | 1010.6 |
| 20260831082022 | 66 | 150 | 3.0 | 5.0 | 0.00 | 0.00 | 0.00 | 62 | 1010.4 |
| 20260831081023 | 67 | 188 | 3.0 | 7.0 | 0.00 | 0.00 | 0.00 | 62 | 1010.6 |
| 20260831080014 | 67 | 147 | 2.0 | 5.0 | 0.00 | 0.00 | 0.00 | 62 | 1010.7 |
| 20260831075019 | 67 | 155 | 2.0 | 8.0 | 0.00 | 0.00 | 0.00 | 61 | 1010.7 |
| 20260831074019 | 67 | 115 | 4.0 | 10.0 | 0.00 | 0.00 | 0.00 | 61 | 1010.6 |
| 20260831073019 | 68 | 149 | 2.0 | 5.0 | 0.00 | 0.00 | 0.00 | 61 | 1010.5 |
| 20260831072020 | 68 | 157 | 2.0 | 7.0 | 0.00 | 0.00 | 0.00 | 60 | 1010.3 |
| 20260831071108 | 68 | 130 | 3.0 | 5.0 | 0.00 | 0.00 | 0.00 | 60 | 1010.4 |
| 20260831070025 | 69 | 107 | 3.0 | 7.0 | 0.00 | 0.00 | 0.00 | 59 | 1010.4 |
| 20260831065019 | 69 | 128 | 4.0 | 6.0 | 0.00 | 0.00 | 0.00 | 58 | 1010.4 |
| 20260831064017 | 69 | 128 | 3.0 | 6.0 | 0.00 | 0.00 | 0.00 | 57 | 1010.5 |
| 20260831063012 | 70 | 98 | 3.0 | 7.0 | 0.00 | 0.00 | 0.00 | 57 | 1010.5 |
| 20260831062030 | 70 | 145 | 2.0 | 7.0 | 0.00 | 0.00 | 0.00 | 57 | 1010.6 |
| 20260831061049 | 70 | 114 | 3.0 | 9.0 | 0.00 | 0.00 | 0.00 | 56 | 1010.6 |
| 20260831060039 | 70 | 139 | 3.0 | 7.0 | 0.00 | 0.00 | 0.00 | 56 | 1010.6 |
| 20260831055012 | 71 | 137 | 3.0 | 8.0 | 0.00 | 0.00 | 0.00 | 56 | 1010.5 |
| 20260831054013 | 71 | 149 | 4.0 | 8.0 | 0.00 | 0.00 | 0.00 | 55 | 1010.5 |
| 20260831053029 | 72 | 127 | 3.0 | 8.0 | 0.00 | 0.00 | 0.00 | 54 | 1010.4 |
| 20260831052022 | 72 | 126 | 3.0 | 5.0 | 0.00 | 0.00 | 0.00 | 52 | 1010.5 |
| 20260831051035 | 73 | 191 | 2.0 | 6.0 | 0.00 | 0.00 | 0.00 | 52 | 1010.4 |
| 20260831050031 | 74 | 155 | 2.0 | 6.0 | 0.00 | 0.00 | 0.00 | 50 | 1010.3 |
| 20260831045026 | 74 | 147 | 1.0 | 4.0 | 0.00 | 0.00 | 0.00 | 47 | 1010.4 |
| 20260831044018 | 75 | 172 | 3.0 | 7.0 | 0.00 | 0.00 | 0.00 | 47 | 1010.3 |
| 20260831043031 | 75 | 195 | 2.0 | 6.0 | 0.00 | 0.00 | 0.00 | 45 | 1010.3 |
| 20260831042028 | 76 | 187 | 2.0 | 6.0 | 0.00 | 0.00 | 0.00 | 45 | 1010.2 |
| 20260831041020 | 76 | 173 | 4.0 | 8.0 | 0.00 | 0.00 | 0.00 | 44 | 1010.1 |
| 20260831040016 | 77 | 209 | 2.0 | 7.0 | 0.00 | 0.00 | 0.00 | 42 | 1009.8 |
| 20260831035030 | 77 | 163 | 2.0 | 6.0 | 0.00 | 0.00 | 0.00 | 41 | 1009.7 |
| 20260831034018 | 79 | 204 | 2.0 | 4.0 | 0.00 | 0.00 | 0.00 | 39 | 1009.7 |
| 20260831033018 | 80 | 165 | 1.0 | 4.0 | 0.00 | 0.00 | 0.00 | 38 | 1009.6 |
| 20260831032017 | 81 | 194 | 3.0 | 6.0 | 0.00 | 0.00 | 0.00 | 37 | 1009.5 |
| 20260831031048 | 82 | 253 | 1.0 | 6.0 | 0.00 | 0.00 | 0.00 | 36 | 1009.5 |
| 20260831030020 | 82 | 184 | 2.0 | 9.0 | 0.00 | 0.00 | 0.00 | 35 | 1009.4 |
| 20260831025018 | 83 | 184 | 2.0 | 10.0 | 0.00 | 0.00 | 0.00 | 34 | 1009.3 |
| 20260831024031 | 84 | 221 | 2.0 | 10.0 | 0.00 | 0.00 | 0.00 | 34 | 1009.2 |
| 20260831023048 | 85 | 253 | 2.0 | 5.0 | 0.00 | 0.00 | 0.00 | 33 | 1009.1 |
| 20260831022019 | 86 | 186 | 1.0 | 5.0 | 0.00 | 0.00 | 0.00 | 31 | 1009.0 |
| 20260831021033 | 87 | 199 | 1.0 | 5.0 | 0.00 | 0.00 | 0.00 | 29 | 1009.1 |
| 20260831020011 | 88 | 152 | 1.0 | 4.0 | 0.00 | 0.00 | 0.00 | 29 | 1009.1 |
| 20260831015027 | 88 | 152 | 2.0 | 5.0 | 0.00 | 0.00 | 0.00 | 28 | 1009.1 |
| 20260831014027 | 89 | 184 | 2.0 | 6.0 | 0.00 | 0.00 | 0.00 | 28 | 1009.1 |
| 20260831013026 | 90 | 172 | 2.0 | 6.0 | 0.00 | 0.00 | 0.00 | 25 | 1009.1 |
| 20260831012015 | 91 | 227 | 1.0 | 4.0 | 0.00 | 0.00 | 0.00 | 25 | 1009.2 |
| 20260831011012 | 91 | 168 | 2.0 | 6.0 | 0.00 | 0.00 | 0.00 | 25 | 1009.3 |
| 20260831010011 | 90 | 260 | 2.0 | 5.0 | 0.00 | 0.00 | 0.00 | 28 | 1009.2 |
| 20260831005025 | 90 | 313 | 3.0 | 6.0 | 0.00 | 0.00 | 0.00 | 27 | 1009.4 |
| 20260831004042 | 92 | 169 | 2.0 | 5.0 | 0.00 | 0.00 | 0.00 | 23 | 1009.4 |
| 20260831003041 | 92 | 186 | 2.0 | 4.0 | 0.00 | 0.00 | 0.00 | 26 | 1009.4 |
| 20260831002030 | 92 | 137 | 1.0 | 5.0 | 0.00 | 0.00 | 0.00 | 26 | 1009.5 |
| 20260831001029 | 92 | 153 | 2.0 | 6.0 | 0.00 | 0.00 | 0.00 | 27 | 1009.6 |
| 20260831000025 | 91 | 227 | 2.0 | 6.0 | 0.00 | 0.00 | 0.00 | 26 | 1009.7 |
| 20260830235018 | 92 | 202 | 3.0 | 8.0 | 0.00 | 0.00 | 0.00 | 26 | 1009.7 |
| 20260830234030 | 92 | 162 | 1.0 | 6.0 | 0.00 | 0.00 | 0.00 | 26 | 1009.7 |
| 20260830233048 | 91 | 224 | 3.0 | 6.0 | 0.00 | 0.00 | 0.00 | 28 | 1009.9 |
| 20260830232020 | 90 | 122 | 1.0 | 7.0 | 0.00 | 0.00 | 0.00 | 28 | 1010.1 |
| 20260830231022 | 91 | 231 | 1.0 | 3.0 | 0.00 | 0.00 | 0.00 | 30 | 1010.2 |
| 20260830230017 | 90 | 200 | 3.0 | 7.0 | 0.00 | 0.00 | 0.00 | 27 | 1010.2 |
| 20260830225031 | 90 | 224 | 3.0 | 7.0 | 0.00 | 0.00 | 0.00 | 28 | 1010.3 |
| 20260830224027 | 89 | 195 | 4.0 | 8.0 | 0.00 | 0.00 | 0.00 | 28 | 1010.4 |
| 20260830223039 | 88 | 239 | 2.0 | 6.0 | 0.00 | 0.00 | 0.00 | 31 | 1010.6 |
| 20260830222011 | 87 | 265 | 4.0 | 10.0 | 0.00 | 0.00 | 0.00 | 32 | 1010.8 |
| 20260830221030 | 87 | 164 | 1.0 | 6.0 | 0.00 | 0.00 | 0.00 | 30 | 1010.9 |
| 20260830220025 | 86 | 244 | 2.0 | 6.0 | 0.00 | 0.00 | 0.00 | 32 | 1011.1 |
| 20260830215024 | 85 | 215 | 2.0 | 7.0 | 0.00 | 0.00 | 0.00 | 35 | 1011.2 |
| 20260830214020 | 85 | 190 | 1.0 | 6.0 | 0.00 | 0.00 | 0.00 | 35 | 1011.3 |
| 20260830213012 | 85 | 245 | 1.0 | 5.0 | 0.00 | 0.00 | 0.00 | 34 | 1011.6 |
| 20260830212012 | 84 | 200 | 3.0 | 5.0 | 0.00 | 0.00 | 0.00 | 35 | 1011.6 |
| 20260830211031 | 84 | 158 | 2.0 | 7.0 | 0.00 | 0.00 | 0.00 | 38 | 1011.8 |
| 20260830210025 | 84 | 64 | 1.0 | 4.0 | 0.00 | 0.00 | 0.00 | 37 | 1011.8 |
| 20260830205024 | 83 | 198 | 3.0 | 8.0 | 0.00 | 0.00 | 0.00 | 39 | 1012.0 |
| 20260830204018 | 83 | 304 | 6.0 | 8.0 | 0.00 | 0.00 | 0.00 | 39 | 1012.1 |
| 20260830203014 | 82 | 265 | 4.0 | 9.0 | 0.00 | 0.00 | 0.00 | 39 | 1012.2 |
| 20260830202015 | 83 | 236 | 2.0 | 4.0 | 0.00 | 0.00 | 0.00 | 42 | 1012.3 |
| 20260830201015 | 84 | 247 | 3.0 | 7.0 | 0.00 | 0.00 | 0.00 | 37 | 1012.4 |
| 20260830200028 | 84 | 185 | 2.0 | 8.0 | 0.00 | 0.00 | 0.00 | 39 | 1012.4 |
| 20260830195025 | 82 | 18 | 2.0 | 8.0 | 0.00 | 0.00 | 0.00 | 41 | 1012.4 |
| 20260830194022 | 81 | 186 | 2.0 | 7.0 | 0.00 | 0.00 | 0.00 | 41 | 1012.4 |
| 20260830193016 | 82 | 224 | 3.0 | 7.0 | 0.00 | 0.00 | 0.00 | 42 | 1012.8 |
| 20260830192012 | 81 | 150 | 2.0 | 7.0 | 0.00 | 0.00 | 0.00 | 44 | 1012.6 |
| 20260830191011 | 80 | 143 | 3.0 | 6.0 | 0.00 | 0.00 | 0.00 | 43 | 1012.8 |
| 20260830190011 | 79 | 201 | 4.0 | 5.0 | 0.00 | 0.00 | 0.00 | 44 | 1012.9 |
| 20260830185048 | 79 | 182 | 3.0 | 7.0 | 0.00 | 0.00 | 0.00 | 45 | 1013.1 |
| 20260830184026 | 78 | 127 | 2.0 | 5.0 | 0.00 | 0.00 | 0.00 | 46 | 1013.2 |
| 20260830183019 | 78 | 121 | 2.0 | 5.0 | 0.00 | 0.00 | 0.00 | 44 | 1013.2 |
| 20260830182013 | 77 | 315 | 1.0 | 4.0 | 0.00 | 0.00 | 0.00 | 47 | 1013.3 |
| 20260830181030 | 76 | 134 | 1.0 | 7.0 | 0.00 | 0.00 | 0.00 | 47 | 1013.3 |
| 20260830180025 | 76 | 154 | 4.0 | 6.0 | 0.00 | 0.00 | 0.00 | 47 | 1013.4 |
| 20260830175046 | 75 | 255 | 0.0 | 4.0 | 0.00 | 0.00 | 0.00 | 50 | 1013.4 |
| 20260830174026 | 74 | 298 | 1.0 | 5.0 | 0.00 | 0.00 | 0.00 | 49 | 1013.5 |
| 20260830173021 | 73 | 170 | 1.0 | 5.0 | 0.00 | 0.00 | 0.00 | 53 | 1013.5 |
| 20260830172019 | 72 | 123 | 4.0 | 7.0 | 0.00 | 0.00 | 0.00 | 53 | 1013.6 |
| 20260830171016 | 71 | 176 | 3.0 | 6.0 | 0.00 | 0.00 | 0.00 | 56 | 1013.5 |
| 20260830170015 | 71 | 115 | 2.0 | 5.0 | 0.00 | 0.00 | 0.00 | 57 | 1013.5 |
| 20260830165015 | 71 | 140 | 3.0 | 7.0 | 0.00 | 0.00 | 0.00 | 57 | 1013.7 |
| 20260830164031 | 69 | 159 | 0.0 | 6.0 | 0.00 | 0.00 | 0.00 | 61 | 1013.5 |
| 20260830163023 | 69 | 92 | 4.0 | 6.0 | 0.00 | 0.00 | 0.00 | 62 | 1013.5 |
| 20260830162041 | 67 | 181 | 2.0 | 5.0 | 0.00 | 0.00 | 0.00 | 64 | 1013.5 |
| 20260830161021 | 67 | 137 | 3.0 | 6.0 | 0.00 | 0.00 | 0.00 | 63 | 1013.5 |
| 20260830160035 | 67 | 114 | 3.0 | 5.0 | 0.00 | 0.00 | 0.00 | 64 | 1013.6 |
| 20260830155030 | 66 | 105 | 4.0 | 7.0 | 0.00 | 0.00 | 0.00 | 66 | 1013.6 |
| 20260830154031 | 66 | 147 | 3.0 | 6.0 | 0.00 | 0.00 | 0.00 | 64 | 1013.7 |
| 20260830153027 | 65 | 103 | 3.0 | 5.0 | 0.00 | 0.00 | 0.00 | 65 | 1013.7 |
| 20260830152027 | 64 | 124 | 4.0 | 7.0 | 0.00 | 0.00 | 0.00 | 67 | 1013.4 |
| 20260830151048 | 63 | 151 | 4.0 | 7.0 | 0.00 | 0.00 | 0.00 | 69 | 1013.5 |
| 20260830150023 | 62 | 149 | 3.0 | 5.0 | 0.00 | 0.00 | 0.00 | 72 | 1013.4 |
| 20260830145045 | 61 | 132 | 2.0 | 4.0 | 0.00 | 0.00 | 0.00 | 73 | 1013.4 |
| 20260830144023 | 60 | 178 | 2.0 | 5.0 | 0.00 | 0.00 | 0.00 | 74 | 1013.4 |
| 20260830143017 | 59 | 142 | 2.0 | 4.0 | 0.00 | 0.00 | 0.00 | 75 | 1013.3 |
| 20260830142017 | 59 | 116 | 1.0 | 4.0 | 0.00 | 0.00 | 0.00 | 75 | 1013.2 |
| 20260830141014 | 58 | 120 | 2.0 | 4.0 | 0.00 | 0.00 | 0.00 | 75 | 1013.1 |
| 20260830140027 | 58 | 126 | 2.0 | 4.0 | 0.00 | 0.00 | 0.00 | 75 | 1013.0 |
| 20260830135045 | 58 | 133 | 0.0 | 0.0 | 0.00 | 0.00 | 0.00 | 75 | 1012.9 |